This demonstration page uses our WeatherBlox Daily Observations layout. Learn more.

Left ArrowRight Arrow

Hourly Observations for July 16, 2016

Temp ( °F °C ) Dew Point ( °F °C ) Humidity (%) Winds ( mph kmh ) Pressure ( in mb ) Visibility ( mi km ) Precip ( " mm )
12:58 am 00:58 Clear 58 14.6 58 14.6 100 100 NE 2 4 30.10 1019 10 16 0.00 0.00
1:58 am 01:58 Clear 58 14.6 58 14.6 100 100 ENE 1 2 30.10 1019 10 16 0.00 0.00
2:58 am 02:58 Mostly Clear 59 14.9 59 14.9 100 100 ENE 3 6 30.07 1018 10 16 0.00 0.00
3:58 am 03:58 Partly Cloudy 60 15.5 60 15.5 100 100 E 2 4 30.07 1018 10 16 0.00 0.00
4:58 am 04:58 Mostly Clear 60 15.8 60 15.8 100 100 E 5 7 30.07 1018 10 16 0.00 0.00
5:58 am 05:58 Mostly Clear 61 16 61 16 100 100 ENE 5 7 30.07 1018 10 16 0.00 0.00
6:58 am 06:58 Sunny 61 16.3 61 16.3 100 100 ENE 3 6 30.07 1018 10 16 0.00 0.00
7:58 am 07:58 Mostly Sunny 65 18.5 63 17.3 93 93 ESE 7 11 30.06 1018 10 16 0.00 0.00
8:58 am 08:58 Mostly Sunny 69 20.3 64 17.6 85 85 ESE 8 13 30.07 1018 10 16 0.00 0.00
9:58 am 09:58 Sunny 73 22.5 66 18.7 79 79 SE 8 13 30.04 1017 10 16 0.00 0.00
10:58 am 10:58 Sunny 76 24.4 68 19.8 76 76 SE 7 11 30.04 1017 10 16 0.00 0.00
11:58 am 11:58 Sunny 79 26.1 70 21.3 75 75 ESE 9 15 30.01 1016 10 16 0.00 0.00
12:58 pm 12:58 Sunny 81 27.4 72 22.2 73 73 SE 12 19 29.99 1016 10 16 0.00 0.00
1:58 pm 13:58 Partly Cloudy 84 28.7 72 22.4 69 69 ESE 13 20 29.96 1015 10 16 0.00 0.00
2:33 pm 14:33 Partly Cloudy 84 29 70 21 62 62 SSE 12 19 29.91 1013 10 16 0.00 0.00
2:58 pm 14:58 Mostly Sunny 86 29.8 72 22.4 65 65 SE 15 24 29.94 1014 9 14 0.00 0.00
3:58 pm 15:58 Partly Cloudy 85 29.2 71 21.7 64 64 SE 16 26 29.92 1013 10 16 0.00 0.00
4:58 pm 16:58 Sunny 84 29 72 22.1 66 66 SE 15 24 29.90 1013 10 16 0.00 0.00
5:58 pm 17:58 Partly Cloudy 84 29 72 22 66 66 SSE 14 22 29.90 1013 10 16 0.00 0.00
6:58 pm 18:58 Mostly Sunny 84 29 73 22.5 68 68 SE 15 24 29.88 1012 10 16 0.00 0.00
7:58 pm 19:58 Sunny 82 27.6 72 22 72 72 SE 13 20 29.87 1012 10 16 0.00 0.00
8:58 pm 20:58 Mostly Clear 80 26.9 71 21.9 74 74 SE 15 24 29.86 1011 10 16 0.00 0.00
9:58 pm 21:58 Clear 79 26.3 72 22.2 78 78 SSE 16 26 29.84 1010 10 16 0.00 0.00
10:58 pm 22:58 Clear 79 26.2 71 21.8 77 77 SSE 14 22 29.86 1011 10 16 0.00 0.00
11:58 pm 23:58 Clear 78 25.7 71 21.7 79 79 SSE 13 20 29.85 1011 10 16 0.00 0.00

Powered by AerisWeather